ASTEX 1

Last updated on Sun Nov 02 2025 00:02:14 GMT+0000 (Coordinated Universal Time)

1 05560U 71089A 25305.45407028 .00000871 00000+0 22239-3 0 9992 2 05560 92.7115 110.2693 0016649 150.6631 209.5513 14.50562714843716
UTC large
Height (km)
Speed (km/s)
/
Latitude / Longitude
Inclination (degrees)
Orbital Period (minutes)
Azimuth
Elevation
Range (km)
Doppler Factor

Next 0 passes for location: London (51.5072 / 0.1276)

Sorry there are no passes over London.